• In Uzbekistan
  • List of Countries
  • For 7 days
  • Water Temperature
  • Satellite Maps
  • Weather Map
  • Weather Widgets
  • user-avatar
    Login

    Hourly Weather Ganja

    Today, 17 January, Tuesday

    Time Temperature Precipitation Wind Pressure Humidity
    00:00 +1°C° 0 mm 2 mps 730 mmHg 74%
    01:00 +1°C° 0 mm 2 mps 730 mmHg 76%
    02:00 +1°C° 0 mm 1 mps 730 mmHg 77%
    03:00 +1°C° 0 mm 1 mps 730 mmHg 78%
    04:00 +1°C° 0 mm 1 mps 730 mmHg 78%
    05:00 +1°C° 0 mm 1 mps 730 mmHg 78%
    06:00 0°C° 0 mm 1 mps 730 mmHg 79%
    07:00 +2°C° 0 mm 1 mps 730 mmHg 74%
    08:00 +3°C° 0 mm 1 mps 730 mmHg 69%
    09:00 +5°C° 0 mm 1 mps 731 mmHg 64%
    10:00 +6°C° 0 mm 1 mps 730 mmHg 60%
    11:00 +7°C° 0 mm 1 mps 730 mmHg 57%
    12:00 +8°C° 0 mm 1 mps 730 mmHg 54%
    13:00 +9°C° 0 mm 1 mps 729 mmHg 54%
    14:00 +9°C° 0 mm 1 mps 729 mmHg 54%
    15:00 +9°C° 0 mm 1 mps 729 mmHg 54%
    16:00 +6°C° 0 mm 0 mps 729 mmHg 60%
    17:00 +4°C° 0 mm 0 mps 729 mmHg 66%
    18:00 +2°C° 0 mm 0 mps 729 mmHg 72%
    19:00 +2°C° 0 mm 0 mps 729 mmHg 74%
    20:00 +2°C° 0 mm 1 mps 730 mmHg 75%
    21:00 +2°C° 0 mm 1 mps 730 mmHg 77%
    22:00 +2°C° 0 mm 1 mps 730 mmHg 78%
    23:00 +2°C° 0 mm 1 mps 730 mmHg 80%

    Tomorrow, 18 January, Wednesday

    Time Temperature Precipitation Wind Pressure Humidity
    00:00 +2°C° 0 mm 1 mps 730 mmHg 82%
    01:00 +1°C° 0 mm 1 mps 730 mmHg 82%
    02:00 +1°C° 0 mm 1 mps 730 mmHg 83%
    03:00 +1°C° 0 mm 1 mps 730 mmHg 84%
    04:00 +1°C° 0 mm 1 mps 730 mmHg 84%
    05:00 -1°C° 0 mm 0 mps 729 mmHg 84%
    06:00 -1°C° 0 mm 0 mps 729 mmHg 84%
    07:00 +1°C° 0 mm 0 mps 730 mmHg 79%
    08:00 +3°C° 0 mm 1 mps 730 mmHg 75%
    09:00 +5°C° 0 mm 1 mps 730 mmHg 70%
    10:00 +6°C° 0 mm 1 mps 730 mmHg 67%
    11:00 +7°C° 0 mm 1 mps 730 mmHg 64%
    12:00 +8°C° 0 mm 1 mps 729 mmHg 61%
    13:00 +8°C° 0 mm 1 mps 729 mmHg 62%
    14:00 +8°C° 0 mm 1 mps 729 mmHg 62%
    15:00 +8°C° 0 mm 1 mps 729 mmHg 63%
    16:00 +7°C° 0 mm 1 mps 729 mmHg 70%
    17:00 +5°C° 0 mm 1 mps 729 mmHg 77%
    18:00 +4°C° 0 mm 1 mps 729 mmHg 83%
    19:00 +3°C° 0 mm 1 mps 730 mmHg 86%
    20:00 +3°C° 0 mm 1 mps 730 mmHg 89%
    21:00 +3°C° 0 mm 1 mps 730 mmHg 91%
    22:00 +2°C° 0 mm 1 mps 730 mmHg 92%
    23:00 +2°C° 0 mm 1 mps 730 mmHg 93%

    Day after tomorrow, 19 January, Thursday

    Time Temperature Precipitation Wind Pressure Humidity
    00:00 +1°C° 0 mm 0 mps 730 mmHg 95%
    01:00 +1°C° 0 mm 0 mps 730 mmHg 95%
    02:00 0°C° 0 mm 0 mps 730 mmHg 95%
    03:00 0°C° 0 mm 0 mps 730 mmHg 96%
    04:00 +1°C° 0 mm 1 mps 730 mmHg 95%
    05:00 +1°C° 0 mm 1 mps 730 mmHg 94%
    06:00 +1°C° 0 mm 1 mps 730 mmHg 93%
    07:00 +2°C° 0 mm 1 mps 730 mmHg 87%
    08:00 +3°C° 0 mm 1 mps 730 mmHg 82%
    09:00 +5°C° 0 mm 1 mps 731 mmHg 76%
    10:00 +6°C° 0 mm 1 mps 730 mmHg 70%
    11:00 +7°C° 0 mm 1 mps 730 mmHg 63%
    12:00 +7°C° 0 mm 2 mps 730 mmHg 57%
    13:00 +7°C° 0 mm 2 mps 729 mmHg 57%
    14:00 +7°C° 0 mm 2 mps 729 mmHg 57%
    15:00 +8°C° 0 mm 2 mps 729 mmHg 57%
    16:00 +7°C° 0 mm 1 mps 729 mmHg 63%
    17:00 +5°C° 0 mm 1 mps 729 mmHg 69%
    18:00 +3°C° 0 mm 1 mps 730 mmHg 75%
    19:00 +2°C° 0 mm 0 mps 730 mmHg 77%
    20:00 +1°C° 0 mm 0 mps 730 mmHg 79%
    21:00 +1°C° 0 mm 0 mps 730 mmHg 80%
    22:00 +1°C° 0 mm 0 mps 731 mmHg 81%
    23:00 +2°C° 0 mm 1 mps 731 mmHg 81%

    20 January, Friday

    Time Temperature Precipitation Wind Pressure Humidity
    00:00 +2°C° 0 mm 1 mps 731 mmHg 81%
    01:00 +2°C° 0 mm 1 mps 731 mmHg 83%
    02:00 +2°C° 0 mm 1 mps 731 mmHg 84%
    03:00 +2°C° 0 mm 1 mps 732 mmHg 85%
    04:00 +2°C° 0 mm 1 mps 732 mmHg 87%
    05:00 +1°C° 0 mm 1 mps 732 mmHg 89%
    06:00 +1°C° 0 mm 1 mps 732 mmHg 91%
    07:00 +1°C° 0 mm 2 mps 733 mmHg 90%
    08:00 +2°C° 0 mm 2 mps 733 mmHg 89%
    09:00 +3°C° 0 mm 2 mps 734 mmHg 88%
    10:00 +3°C° 0.1 mm 2 mps 733 mmHg 87%
    11:00 +4°C° 0.1 mm 2 mps 733 mmHg 86%
    12:00 +3°C° 0.1 mm 3 mps 733 mmHg 84%
    13:00 +4°C° 0.1 mm 2 mps 733 mmHg 84%
    14:00 +4°C° 0.1 mm 2 mps 732 mmHg 84%
    15:00 +4°C° 0.1 mm 2 mps 732 mmHg 83%
    16:00 +3°C° 0 mm 2 mps 732 mmHg 86%
    17:00 +4°C° 0 mm 1 mps 733 mmHg 90%
    18:00 +3°C° 0 mm 1 mps 733 mmHg 93%
    19:00 +3°C° 0 mm 1 mps 733 mmHg 94%
    20:00 +2°C° 0 mm 1 mps 733 mmHg 95%
    21:00 +1°C° 0 mm 1 mps 733 mmHg 96%
    22:00 0°C° 0 mm 0 mps 733 mmHg 97%
    23:00 0°C° 0 mm 0 mps 733 mmHg 97%

    21 January, Saturday

    Time Temperature Precipitation Wind Pressure Humidity
    00:00 0°C° 0 mm 0 mps 733 mmHg 97%
    01:00 0°C° 0 mm 0 mps 733 mmHg 97%
    02:00 0°C° 0 mm 0 mps 733 mmHg 97%
    03:00 0°C° 0 mm 0 mps 732 mmHg 97%
    04:00 0°C° 0 mm 1 mps 732 mmHg 97%
    05:00 0°C° 0 mm 1 mps 732 mmHg 96%
    06:00 0°C° 0 mm 1 mps 732 mmHg 96%
    07:00 +1°C° 0 mm 1 mps 732 mmHg 91%
    08:00 +2°C° 0 mm 1 mps 732 mmHg 87%
    09:00 +3°C° 0 mm 1 mps 733 mmHg 82%
    10:00 +4°C° 0 mm 1 mps 732 mmHg 76%
    11:00 +5°C° 0 mm 1 mps 732 mmHg 70%
    12:00 +6°C° 0 mm 1 mps 731 mmHg 64%
    13:00 +5°C° 0 mm 2 mps 731 mmHg 64%
    14:00 +5°C° 0 mm 2 mps 731 mmHg 63%
    15:00 +5°C° 0 mm 2 mps 731 mmHg 62%
    16:00 +5°C° 0 mm 1 mps 731 mmHg 69%
    17:00 +3°C° 0 mm 1 mps 731 mmHg 75%
    18:00 +1°C° 0 mm 0 mps 731 mmHg 81%
    19:00 +1°C° 0 mm 0 mps 731 mmHg 82%
    20:00 0°C° 0 mm 0 mps 732 mmHg 84%
    21:00 0°C° 0 mm 0 mps 732 mmHg 85%
    22:00 0°C° 0 mm 0 mps 732 mmHg 86%
    23:00 -1°C° 0 mm 0 mps 732 mmHg 87%

    22 January, Sunday

    Time Temperature Precipitation Wind Pressure Humidity
    00:00 -1°C° 0 mm 0 mps 732 mmHg 88%
    01:00 -1°C° 0 mm 0 mps 733 mmHg 87%
    02:00 0°C° 0 mm 1 mps 733 mmHg 87%
    03:00 0°C° 0 mm 1 mps 733 mmHg 87%
    04:00 0°C° 0 mm 1 mps 733 mmHg 87%
    05:00 -1°C° 0 mm 1 mps 734 mmHg 87%
    06:00 -1°C° 0 mm 1 mps 734 mmHg 87%
    07:00 +1°C° 0 mm 1 mps 735 mmHg 81%
    08:00 +2°C° 0 mm 1 mps 735 mmHg 75%
    09:00 +2°C° 0 mm 0 mps 736 mmHg 70%
    10:00 +4°C° 0 mm 1 mps 736 mmHg 65%
    11:00 +5°C° 0 mm 1 mps 736 mmHg 61%
    12:00 +6°C° 0 mm 1 mps 736 mmHg 57%
    13:00 +6°C° 0 mm 1 mps 736 mmHg 56%
    14:00 +6°C° 0 mm 1 mps 736 mmHg 56%
    15:00 +6°C° 0 mm 1 mps 736 mmHg 55%
    16:00 +5°C° 0 mm 1 mps 736 mmHg 62%
    17:00 +3°C° 0 mm 1 mps 737 mmHg 68%
    18:00 +1°C° 0 mm 2 mps 737 mmHg 74%
    19:00 +1°C° 0 mm 2 mps 738 mmHg 77%
    20:00 -1°C° 0 mm 2 mps 738 mmHg 80%
    21:00 +1°C° 0 mm 1 mps 738 mmHg 82%
    22:00 0°C° 0 mm 1 mps 738 mmHg 85%
    23:00 0°C° 0 mm 1 mps 739 mmHg 88%
    Show more